Sigfox identifier Datetime Temperature Humidity SNR
002F0817 2019-06-03 16:46:30 15.9 45 12.3
002F0817 2019-06-03 14:34:53 14.1 43 12
002F0817 2019-06-03 13:29:04 13.3 41 11.9
002F0817 2019-06-03 12:23:11 12.6 39 11
002F0817 2019-06-03 11:17:19 12.2 38 10.6
002F0817 2019-06-03 10:11:31 12.3 37 10.5
002F0817 2019-06-03 09:05:41 12.6 37 9.7
002F0817 2019-06-03 07:59:54 13.3 37 9.6
002F0817 2019-06-03 06:54:05 14.1 37 9.8
002F0817 2019-06-03 05:48:19 15 38 9.8
002F0817 2019-06-03 04:42:28 15.6 39 9.9
002F0817 2019-06-03 03:36:42 16.4 40 9.8
002F0817 2019-06-03 02:30:55 16.9 41 9.8
002F0817 2019-06-03 01:25:08 17.3 42 9.9
002F0817 2019-06-03 00:19:21 17.3 43 10
002F0817 2019-06-02 23:13:33 17.1 43 10
002F0817 2019-06-02 22:07:48 16.7 43 10
002F0817 2019-06-02 21:02:02 16 42 9.9
002F0817 2019-06-02 19:56:12 15.2 41 9.8
002F0817 2019-06-02 18:50:23 14.5 39 9.7
002F0817 2019-06-02 17:44:35 13.9 38 9.8
002F0817 2019-06-02 16:38:46 13.5 37 10
002F0817 2019-06-02 15:32:56 13.3 36 10.9
002F0817 2019-06-02 14:27:09 13.3 36 11.6
002F0817 2019-06-02 13:21:17 13.3 36 11.9
002F0817 2019-06-02 12:15:29 13.5 35 12
002F0817 2019-06-02 11:09:33 13.5 35 11.8
002F0817 2019-06-02 10:03:42 13.7 35 11.9
002F0817 2019-06-02 08:57:51 14 35 11.9
002F0817 2019-06-02 07:52:01 14.3 35 17.4
002F0817 2019-06-02 06:46:14 14.8 35 17.5
002F0817 2019-06-02 05:40:24 15.2 35 17.5
002F0817 2019-06-02 04:34:36 15.7 35 17.5
002F0817 2019-06-02 03:28:45 16.3 35 17.9
002F0817 2019-06-02 01:17:10 17.5 36 17.9
002F0817 2019-06-02 00:11:16 18 37 18
002F0817 2019-06-01 23:05:28 18.4 37 18
002F0817 2019-06-01 21:59:38 18.8 38 18
002F0817 2019-06-01 20:53:49 18.8 38 18.1
002F0817 2019-06-01 19:48:01 18.8 38 18.1
002F0817 2019-06-01 18:42:13 18.7 38 19.7
002F0817 2019-06-01 17:36:24 18.5 38 20.6
002F0817 2019-06-01 16:30:31 18.3 37 21.6
002F0817 2019-06-01 15:24:37 18.2 37 22.5
002F0817 2019-06-01 14:18:44 18.2 37 22.9
002F0817 2019-06-01 13:12:53 18.2 36 23.2
002F0817 2019-06-01 12:07:01 18.4 36 23.3
002F0817 2019-06-01 11:01:09 18.6 37 23.6
002F0817 2019-06-01 09:55:17 18.8 37 23.9
002F0817 2019-06-01 08:49:26 18.9 37 24.5
002F0817 2019-06-01 07:43:37 19 37 24.8
002F0817 2019-06-01 06:37:47 19 37 25.3
002F0817 2019-06-01 05:31:57 19 37 25.7
002F0817 2019-06-01 04:26:05 19.2 38 26.1
002F0817 2019-06-01 03:20:13 19.3 38 26.1
002F0817 2019-06-01 02:14:21 19.5 38 26.5
002F0817 2019-06-01 01:08:29 19.7 38 26.6
002F0817 2019-06-01 00:02:37 19.9 38 27
002F0817 2019-05-31 22:56:46 20.3 39 27.3
002F0817 2019-05-31 21:50:54 20.5 39 27.6
002F0817 2019-05-31 20:45:02 20.7 40 27.8
002F0817 2019-05-31 19:39:14 20.9 40 28.1
002F0817 2019-05-31 18:33:24 21 41 28.2
002F0817 2019-05-31 17:27:37 21.2 41 28.2
002F0817 2019-05-31 16:21:48 21.1 42 28.3
002F0817 2019-05-31 14:10:10 21 42 28.4
002F0817 2019-05-31 13:04:19 21 42 28.4
002F0817 2019-05-31 11:58:31 20.7 41 28.3
002F0817 2019-05-31 10:52:41 20.7 41 28.1
002F0817 2019-05-31 09:46:52 20.7 41 28.2
002F0817 2019-05-31 08:41:02 20.6 42 28.3
002F0817 2019-05-31 07:35:13 20.5 42 28.4
002F0817 2019-05-31 06:29:23 20.5 42 28.5
002F0817 2019-05-31 05:23:33 20.5 42 28.6
002F0817 2019-05-31 04:17:44 20.5 42 28.7
002F0817 2019-05-31 03:11:54 20.5 42 28.7
002F0817 2019-05-31 02:06:05 20.5 42 28.5
002F0817 2019-05-31 01:00:15 20.5 43 28.5
002F0817 2019-05-30 23:54:26 20.5 43 28.5
002F0817 2019-05-30 22:48:37 20.4 43 28.5
002F0817 2019-05-30 21:42:48 20.4 43 28.5
002F0817 2019-05-30 20:37:00 20.4 43 28.6
002F0817 2019-05-30 19:31:12 20.5 43 28.5
002F0817 2019-05-30 18:25:25 20.5 43 28.5
002F0817 2019-05-30 17:19:37 20.5 44 28.5
002F0817 2019-05-30 16:13:48 20.5 44 28.3
002F0817 2019-05-30 15:07:57 20.7 44 28.3
002F0817 2019-05-30 14:02:08 20.7 44 28.4
002F0817 2019-05-30 12:56:19 20.7 45 28.5
002F0817 2019-05-30 11:50:29 20.8 45 28.6
002F0817 2019-05-30 10:44:40 20.8 45 28.6
002F0817 2019-05-30 09:38:50 20.9 45 28.7
002F0817 2019-05-30 08:33:01 21 45 28.8
002F0817 2019-05-30 07:27:11 20.9 46 28.8
002F0817 2019-05-30 06:21:22 20.9 46 28.9
002F0817 2019-05-30 05:15:29 21 46 28.9
002F0817 2019-05-30 04:09:39 21.2 46 29
002F0817 2019-05-30 03:03:50 21.2 46 28.9
002F0817 2019-05-30 01:57:59 21.2 47 28.9
002F0817 2019-05-30 00:52:08 21.3 47 28.9
002F0817 2019-05-29 23:46:19 21.4 47 28.9
002F0817 2019-05-29 22:40:30 21.4 47 28.9
002F0817 2019-05-29 21:34:42 21.6 48 28.8
002F0817 2019-05-29 20:28:52 21.6 48 28.9
002F0817 2019-05-29 19:23:04 21.6 48 28.8
002F0817 2019-05-29 18:17:14 21.6 48 28.7
002F0817 2019-05-29 17:11:24 21.6 49 28.6
002F0817 2019-05-29 16:05:38 21.5 49 28.4
002F0817 2019-05-29 14:59:51 21.2 48 28.1
002F0817 2019-05-29 13:54:03 21.2 48 28
002F0817 2019-05-29 12:48:15 21.2 48 27.8
002F0817 2019-05-29 11:42:26 21.2 48 27.5
002F0817 2019-05-29 10:36:37 21.2 48 27.4
002F0817 2019-05-29 09:30:48 21.1 48 27.1
002F0817 2019-05-29 08:24:59 21.1 47 26.7
002F0817 2019-05-29 07:19:10 21.2 47 26.5
002F0817 2019-05-29 06:13:19 21.2 47 26.1
002F0817 2019-05-29 05:07:28 21.1 47 25.9
002F0817 2019-05-29 04:01:37 21.2 47 25.4
002F0817 2019-05-29 02:55:47 21.2 47 25
002F0817 2019-05-29 01:49:55 21.2 47 24.7
002F0817 2019-05-29 00:44:04 21.2 47 24.3
002F0817 2019-05-28 23:38:11 21.2 47 23.7
002F0817 2019-05-28 22:32:21 21.2 47 23.1
002F0817 2019-05-28 21:26:35 21.2 47 22.9
002F0817 2019-05-28 20:20:45 21.2 46 22.6
002F0817 2019-05-28 19:14:53 21.2 46 22.3
002F0817 2019-05-28 18:09:01 21.2 46 21.1
002F0817 2019-05-28 17:03:09 21.2 46 19.9
002F0817 2019-05-28 15:57:18 21.4 46 16.8
002F0817 2019-05-28 14:51:28 21.2 46 14.2
002F0817 2019-05-28 12:39:41 21.2 45 14.4
002F0817 2019-05-28 11:33:53 21.1 45 14.4
002F0817 2019-05-28 10:28:03 21.2 45 14.7
002F0817 2019-05-28 09:22:10 21 45 14.5
002F0817 2019-05-28 08:16:17 21 44 14.7
002F0817 2019-05-28 07:10:20 21 44 14.6
002F0817 2019-05-28 06:04:32 21 44 14.9
002F0817 2019-05-28 03:52:42 21.2 43 14.9
002F0817 2019-05-28 02:46:52 21.1 43 15.3
002F0817 2019-05-28 01:40:58 21.2 43 15.5
002F0817 2019-05-28 00:35:09 21.2 43 16.1
002F0817 2019-05-27 22:23:23 21.2 43 16.5
002F0817 2019-05-27 21:17:33 21.4 43 17.4
002F0817 2019-05-27 20:11:43 21.4 43 18.2
002F0817 2019-05-27 19:05:51 21.3 43 19.8
002F0817 2019-05-27 15:48:01 21.4 45 22
002F0817 2019-05-27 14:42:02 21 50 0